TimeCST,TemperatureF,Dew PointF,Humidity,Sea Level PressureIn,VisibilityMPH,Wind Direction,Wind SpeedMPH,Gust SpeedMPH,PrecipitationIn,Events,Conditions,WindDirDegrees,DateUTC
12:15 AM,35.6,26.6,70,30.07,10.0,South,4.6,-,N/A,,Clear,170,2013-12-28 06:15:00
12:35 AM,35.6,26.6,70,30.06,10.0,South,6.9,-,N/A,,Clear,180,2013-12-28 06:35:00
12:55 AM,34.3,26.4,73,30.05,10.0,South,10.4,-,N/A,,Clear,180,2013-12-28 06:55:00
1:15 AM,34.2,26.6,74,30.05,10.0,South,9.2,-,N/A,,Clear,180,2013-12-28 07:15:00
1:35 AM,32.7,26.1,76,30.04,10.0,South,8.1,-,N/A,,Clear,170,2013-12-28 07:35:00
1:55 AM,33.1,26.4,77,30.03,10.0,South,6.9,-,N/A,,Clear,170,2013-12-28 07:55:00
2:15 AM,33.8,27.0,76,30.03,10.0,South,5.8,-,N/A,,Clear,170,2013-12-28 08:15:00
2:35 AM,33.1,26.8,78,30.03,10.0,South,8.1,-,N/A,,Clear,170,2013-12-28 08:35:00
2:55 AM,33.8,27.3,77,30.02,10.0,South,10.4,-,N/A,,Clear,180,2013-12-28 08:55:00
3:15 AM,34.5,27.5,76,30.01,10.0,South,12.7,-,N/A,,Clear,180,2013-12-28 09:15:00
3:35 AM,34.2,27.5,77,30.01,10.0,South,10.4,-,N/A,,Clear,180,2013-12-28 09:35:00
3:55 AM,34.0,27.3,77,30.00,10.0,South,10.4,-,N/A,,Clear,180,2013-12-28 09:55:00
4:15 AM,34.0,27.3,77,29.98,10.0,South,9.2,-,N/A,,Clear,180,2013-12-28 10:15:00
4:35 AM,34.2,27.3,76,29.97,10.0,South,9.2,-,N/A,,Clear,170,2013-12-28 10:35:00
4:55 AM,34.3,27.3,76,29.97,10.0,South,9.2,-,N/A,,Clear,170,2013-12-28 10:55:00
5:15 AM,34.2,27.1,75,29.96,10.0,South,10.4,-,N/A,,Clear,170,2013-12-28 11:15:00
5:35 AM,34.7,27.1,74,29.96,10.0,SSE,5.8,-,N/A,,Clear,160,2013-12-28 11:35:00
5:55 AM,34.3,27.3,76,29.95,10.0,South,10.4,-,N/A,,Clear,170,2013-12-28 11:55:00
6:15 AM,33.8,27.1,77,29.94,10.0,South,10.4,-,N/A,,Clear,180,2013-12-28 12:15:00
6:35 AM,33.8,27.3,77,29.94,10.0,South,10.4,-,N/A,,Clear,170,2013-12-28 12:35:00
6:55 AM,33.8,27.5,78,29.94,10.0,South,12.7,-,N/A,,Clear,170,2013-12-28 12:55:00
7:15 AM,34.0,27.3,77,29.94,10.0,South,10.4,-,N/A,,Clear,170,2013-12-28 13:15:00
7:35 AM,33.8,27.3,77,29.94,10.0,South,10.4,-,N/A,,Clear,170,2013-12-28 13:35:00
7:55 AM,33.4,27.1,78,29.94,10.0,South,10.4,-,N/A,,Clear,170,2013-12-28 13:55:00
8:15 AM,33.8,27.5,78,29.93,10.0,South,11.5,-,N/A,,Clear,180,2013-12-28 14:15:00
8:35 AM,35.6,28.0,74,29.92,10.0,South,10.4,-,N/A,,Clear,180,2013-12-28 14:35:00
8:55 AM,37.4,28.8,71,29.92,10.0,South,12.7,-,N/A,,Clear,180,2013-12-28 14:55:00
9:15 AM,39.4,28.9,66,29.93,10.0,South,10.4,-,N/A,,Clear,180,2013-12-28 15:15:00
9:35 AM,41.2,29.3,63,29.92,10.0,South,12.7,-,N/A,,Clear,180,2013-12-28 15:35:00
9:55 AM,42.8,29.5,59,29.92,10.0,South,10.4,-,N/A,,Clear,170,2013-12-28 15:55:00
10:15 AM,44.1,29.5,57,29.91,10.0,SSE,11.5,-,N/A,,Clear,160,2013-12-28 16:15:00
10:35 AM,45.5,30.0,55,29.91,10.0,South,13.8,19.6,N/A,,Clear,170,2013-12-28 16:35:00
10:55 AM,47.5,30.2,51,29.90,10.0,South,13.8,-,N/A,,Clear,180,2013-12-28 16:55:00
11:15 AM,48.7,30.2,49,29.89,10.0,South,17.3,-,N/A,,Clear,180,2013-12-28 17:15:00
11:35 AM,50.4,30.4,46,29.88,10.0,South,16.1,-,N/A,,Clear,180,2013-12-28 17:35:00
11:55 AM,51.4,29.7,43,29.87,10.0,South,15.0,-,N/A,,Clear,180,2013-12-28 17:55:00
12:15 PM,52.2,30.2,43,29.85,10.0,South,15.0,-,N/A,,Clear,170,2013-12-28 18:15:00
12:35 PM,53.1,30.2,42,29.84,10.0,South,17.3,20.7,N/A,,Clear,170,2013-12-28 18:35:00
12:55 PM,53.8,30.0,40,29.84,10.0,South,13.8,-,N/A,,Clear,180,2013-12-28 18:55:00
1:15 PM,55.4,27.1,34,29.82,10.0,South,16.1,24.2,N/A,,Clear,180,2013-12-28 19:15:00
1:35 PM,55.9,27.9,34,29.80,10.0,South,18.4,-,N/A,,Clear,180,2013-12-28 19:35:00
1:55 PM,56.3,27.3,33,29.79,10.0,South,17.3,26.5,N/A,,Clear,190,2013-12-28 19:55:00
2:15 PM,55.8,28.0,35,29.78,10.0,South,19.6,24.2,N/A,,Clear,170,2013-12-28 20:15:00
2:35 PM,54.5,27.7,36,29.77,10.0,South,19.6,-,N/A,,Clear,180,2013-12-28 20:35:00
2:55 PM,54.5,27.3,35,29.77,10.0,South,17.3,25.3,N/A,,Clear,180,2013-12-28 20:55:00
3:15 PM,54.5,27.1,35,29.77,10.0,South,17.3,24.2,N/A,,Clear,180,2013-12-28 21:15:00
3:35 PM,53.8,25.7,34,29.77,10.0,South,20.7,26.5,N/A,,Clear,190,2013-12-28 21:35:00
3:55 PM,53.1,25.5,34,29.77,10.0,South,23.0,27.6,N/A,,Clear,190,2013-12-28 21:55:00
4:15 PM,52.0,25.5,36,29.77,10.0,South,19.6,27.6,N/A,,Clear,190,2013-12-28 22:15:00
4:35 PM,50.9,25.7,38,29.78,10.0,South,17.3,24.2,N/A,,Clear,190,2013-12-28 22:35:00
4:55 PM,48.7,26.1,41,29.80,10.0,SSW,12.7,18.4,N/A,,Clear,200,2013-12-28 22:55:00
5:15 PM,46.8,26.4,45,29.80,10.0,South,12.7,-,N/A,,Clear,190,2013-12-28 23:15:00
5:35 PM,45.7,26.6,47,29.81,10.0,South,12.7,-,N/A,,Clear,190,2013-12-28 23:35:00
5:55 PM,45.1,26.6,48,29.81,10.0,South,12.7,-,N/A,,Clear,190,2013-12-28 23:55:00
6:15 PM,44.4,26.6,50,29.82,10.0,SSW,12.7,-,N/A,,Clear,200,2013-12-29 00:15:00
6:35 PM,42.3,27.0,55,29.85,10.0,WSW,15.0,18.4,N/A,,Clear,240,2013-12-29 00:35:00
6:55 PM,43.3,28.6,56,29.86,10.0,NW,27.6,38.0,N/A,,Clear,320,2013-12-29 00:55:00
7:15 PM,42.1,29.3,61,29.89,10.0,NNW,21.9,35.7,N/A,,Clear,330,2013-12-29 01:15:00
7:35 PM,40.3,29.1,64,29.91,10.0,NW,21.9,35.7,N/A,,Clear,320,2013-12-29 01:35:00
7:55 PM,38.8,29.1,68,29.91,10.0,NNW,24.2,29.9,N/A,,Clear,330,2013-12-29 01:55:00
8:15 PM,37.8,28.6,69,29.93,10.0,NW,18.4,26.5,N/A,,Scattered Clouds,320,2013-12-29 02:15:00
8:35 PM,36.9,27.9,70,29.94,10.0,NW,24.2,36.8,N/A,,Overcast,320,2013-12-29 02:35:00
8:55 PM,34.7,25.9,70,29.96,10.0,NNW,32.2,42.6,N/A,,Overcast,330,2013-12-29 02:55:00
9:15 PM,32.2,24.4,73,29.98,10.0,NNW,24.2,38.0,N/A,,Overcast,330,2013-12-29 03:15:00
9:35 PM,30.4,22.3,72,30.01,10.0,NNW,24.2,38.0,N/A,,Overcast,330,2013-12-29 03:35:00
9:55 PM,28.9,21.2,73,30.02,10.0,NNW,27.6,35.7,N/A,,Overcast,330,2013-12-29 03:55:00
10:15 PM,27.1,19.4,73,30.04,10.0,NNW,21.9,40.3,N/A,,Overcast,330,2013-12-29 04:15:00
10:35 PM,25.5,17.6,72,30.06,10.0,NNW,18.4,29.9,N/A,,Overcast,330,2013-12-29 04:35:00
10:55 PM,23.2,14.9,71,30.08,10.0,NW,20.7,29.9,N/A,,Overcast,320,2013-12-29 04:55:00
11:15 PM,20.7,11.5,68,30.09,10.0,NW,29.9,39.1,N/A,,Overcast,320,2013-12-29 05:15:00
11:35 PM,19.9,10.9,68,30.09,10.0,NW,21.9,39.1,N/A,,Overcast,310,2013-12-29 05:35:00
11:55 PM,18.1,8.8,67,30.10,10.0,NW,27.6,39.1,N/A,,Overcast,320,2013-12-29 05:55:00